User: anonymous
Location: Drayton Valley
(53.2170°N, 114.9830°W)
Time: 11:28:17
(UTC-06:00)
Language:

Cosmos 1302 Rocket - Orbit

View from above orbital plane
View from above orbital plane
View from above satellite
View from above satellite

Ground track
Ground track

The orbit data is extracted from the following two-line orbital elements,

1 12792U 81084B   14109.17808338  .00000328  00000-0  11928-3 0  4896
2 12792 074.0317 001.1048 0014171 210.5358 311.9821 14.37074366709111
Epoch (UTC): 19 April 2014 04:16:26
Eccentricity: 0.0014171
inclination: 74.0317°
perigee height: 758 km
apogee height: 778 km
right ascension of ascending node: 1.1048°
argument of perigee: 210.5358°
revolutions per day: 14.37074366
mean anomaly at epoch: 311.9821°
orbit number at epoch: 70911

The dashed part of the orbit path shows where the satellite is in the earth's shadow,  

DLR